Flag for U.S.A. Weather past 2 weeks in Baton Rouge, Louisiana, U.S.A.

Now
79 °F

Clear.


Feels Like: 83 °F
Forecast: 76 / 94 °F
Wind: No wind

Location: Baton Rouge Metropolitan - Ryan Field

Current Time: Aug 23, 2014 at 3:21:42 AM

Latest Report: Aug 23, 2014 at 2:53 AM


Visibility: 10 mi

Pressure: 30.00 "Hg

Humidity: 88%

Dew point: 75 °F

Location of Baton RougeLocation

Historic Weather in Baton Rouge — Graph

°F

Baton Rouge temperature yesterday

Maximum temperature yesterday: 94 °F (at 2:53 PM)
Minimum temperature yesterday: 74 °F (at 1:53 AM)
Average temperature yesterday: 83 °F

Past Weeks' High & Low Weather Summary

 TemperatureHumidityPressure
High95 °F (Aug 20, 1:53 PM)97% (Aug 11, 2:53 AM)30.14 "Hg (Aug 11, 2:53 AM)
Low65 °F (Aug 15, 6:53 AM)41% (Aug 14, 4:53 PM)29.89 "Hg (Aug 12, 6:53 PM)
Average81 °F77%30.01 "Hg
* Reported Aug 8 1:53 AM — Aug 23 1:53 AM, Baton Rouge, Weather by CustomWeather, © 2014

Note: Actual official high and low records may vary slightly from our data, if they occured in-between our weather recording intervals... More about our weather records

Advertising

Baton Rouge weather history for previous 24 hours

 ConditionsComfort  
Time TempWeatherWind HumidityBarometerVisibility
1:53 AM
Aug 23
79 °FClear.No wind88%30.01 "Hg10 mi
12:53 AM80 °FClear.3 mph85%30.01 "Hg10 mi
11:53 PM
Aug 22
79 °FClear.5 mph88%30.02 "Hg8 mi
10:53 PM80 °FClear.No wind87%30.03 "Hg9 mi
9:53 PM81 °FClear.No wind85%30.02 "Hg10 mi
8:53 PM82 °FClear.No wind85%30.01 "Hg9 mi
7:53 PM85 °FSunny.No wind72%30.01 "Hg10 mi
6:53 PM91 °FSunny.3 mph56%30.01 "Hg10 mi
5:53 PM93 °FScattered clouds.3 mph49%30.01 "Hg10 mi
4:53 PM94 °FSunny.5 mph49%30.02 "Hg10 mi
3:53 PM94 °FSunny.3 mph48%30.04 "Hg10 mi
2:53 PM94 °FScattered clouds.3 mph49%30.06 "Hg10 mi
1:53 PM93 °FScattered clouds.3 mph49%30.09 "Hg10 mi
1:00 PM91 °FScattered clouds.3 mph54%30.10 "Hg10 mi
11:53 AM88 °FPartly sunny.No wind59%30.12 "Hg10 mi
10:53 AM87 °FScattered clouds.6 mph72%30.13 "Hg10 mi
9:53 AM83 °FSunny.No wind82%30.12 "Hg10 mi
8:53 AM80 °FScattered clouds.3 mph87%30.12 "Hg10 mi
7:53 AM77 °FFog.No wind90%30.11 "Hg6 mi
6:53 AM74 °FFog.No wind97%30.10 "Hg4 mi
5:53 AM74 °FFog.No wind94%30.10 "Hg6 mi
4:53 AM75 °FFog.No wind94%30.09 "Hg6 mi
3:53 AM75 °FFog.No wind94%30.08 "Hg6 mi
Weather by CustomWeather, © 2014

See weather overviewHow to use our weather pages